Weather History for Asheboro, NC

Change the Weather History Date:

Thursday, January 17, 2013

  Actual Average Record
Temperature  
Mean Temperature 41 °F -  
Max Temperature 50 °F 48 °F 76 °F (1943)
Min Temperature 32 °F 27 °F 1 °F (1977)
Degree Days  
Heating Degree Days 24    
Moisture  
Dew Point 44 °F    
Average Humidity 100    
Maximum Humidity 100    
Minimum Humidity 95    
Precipitation  
Precipitation 1.17 in - - ()
Sea Level Pressure  
Sea Level Pressure 30.00 in    
Wind  
Wind Speed 4 mph (NNE)    
Max Wind Speed 17 mph    
Max Gust Speed 30 mph    
Visibility 5 miles    
Events Rain , Snow    
Averages and records for this station are not official NWS values.
T = Trace of Precipitation, MM = Missing Value Source: NWS Daily Summary

Daily Weather History Graph

Daily Weather History Graph

Search for Another Location

Airport:

Trip Planner

Search our weather history database for the weather conditions in past years. The results will help you decide how hot, cold, wet, or windy it might be!

Date:

Astronomy

Jan. 17, 2013 Rise Set
Actual Time 7:27 AM EST 5:31 PM EST
Civil Twilight 7:00 AM EST 5:59 PM EST
Nautical Twilight 6:29 AM EST 6:30 PM EST
Astronomical Twilight 5:58 AM EST 7:01 PM EST
Moon 10:48 AM EST (1/17) No Moon Set
Length of Visible Light 10h 59m
Length of Day
10h 04m
Waxing Crescent, 37% of the Moon is Illuminated
Jan 17
Waxing Crescent
Jan 18
First Quarter
Jan 26
Full
Feb 3
Last Quarter
Feb 10
New

Hourly Weather History & Observations

Time (EST) Temp. Windchill Dew Point Humidity Pressure Visibility Wind Dir Wind Speed Gust Speed Precip Events Conditions
12:15 AM 50.0 °F - 50.0 °F 100% 30.01 in 3.0 mi Calm Calm - 0.02 in Rain Light Rain
12:35 AM 50.0 °F - 50.0 °F 100% 30.01 in 3.0 mi Calm Calm - 0.03 in Rain Light Rain
12:55 AM 50.0 °F - 50.0 °F 100% 30.01 in 2.5 mi Calm Calm - 0.04 in Rain Rain
1:15 AM 50.2 °F - 50.2 °F 100% 30.01 in 2.5 mi Calm Calm - 0.04 in Rain Rain
1:35 AM 50.0 °F - 50.0 °F 100% 30.00 in 3.0 mi Calm Calm - 0.05 in Rain Rain
1:55 AM 50.0 °F - 50.0 °F 100% 30.01 in 3.0 mi Calm Calm - 0.05 in   Drizzle
2:15 AM 49.6 °F - 49.6 °F 100% 30.00 in 3.0 mi Calm Calm - 0.01 in Rain Heavy Rain
2:35 AM 50.0 °F - 50.0 °F 100% 29.99 in 4.0 mi Calm Calm - 0.02 in Rain Rain
2:55 AM 50.0 °F - 50.0 °F 100% 29.98 in 7.0 mi Calm Calm - 0.02 in   Overcast
3:15 AM 50.2 °F - 50.2 °F 100% 29.99 in 4.0 mi Calm Calm - N/A   Drizzle
3:35 AM 50.2 °F - 50.2 °F 100% 29.99 in 3.0 mi Calm Calm - 0.04 in Rain Rain
3:55 AM 50.0 °F - 50.0 °F 100% 29.98 in 4.0 mi Calm Calm - 0.04 in Rain Rain
4:15 AM 50.0 °F - 50.0 °F 100% 29.99 in 3.0 mi Calm Calm - 0.03 in Rain Rain
4:35 AM 50.0 °F - 50.0 °F 100% 29.98 in 5.0 mi NE 3.5 mph - 0.05 in Rain Light Rain
4:55 AM 50.0 °F - 50.0 °F 100% 29.99 in 7.0 mi North 6.9 mph - 0.05 in   Drizzle
5:15 AM 50.0 °F - 50.0 °F 100% 29.99 in 4.0 mi North 3.5 mph - 0.03 in Rain Rain
5:35 AM 50.0 °F - 50.0 °F 100% 30.00 in 4.0 mi Calm Calm - 0.04 in Rain Rain
5:55 AM 50.0 °F - 50.0 °F 100% 29.99 in 5.0 mi NE 5.8 mph - 0.05 in Rain Rain
6:15 AM 50.0 °F - 50.0 °F 100% 29.99 in 10.0 mi NE 3.5 mph - 0.01 in Rain Light Rain
6:35 AM 49.6 °F - 49.6 °F 100% 30.00 in 7.0 mi NNE 3.5 mph - 0.03 in Rain Light Rain
6:55 AM 49.5 °F - 49.5 °F 100% 30.00 in 7.0 mi ENE 3.5 mph - 0.04 in Rain Light Rain
7:15 AM 49.3 °F - 49.1 °F 99% 30.01 in 10.0 mi Calm Calm - 0.01 in Rain Rain
7:35 AM 49.1 °F - 48.7 °F 99% 30.02 in 5.0 mi Calm Calm - 0.04 in Rain Rain
7:55 AM 48.7 °F - 48.7 °F 100% 30.03 in 5.0 mi Calm Calm - 0.08 in Rain Rain
8:15 AM 48.6 °F - 48.4 °F 99% 30.04 in 5.0 mi NNE 4.6 mph - 0.03 in Rain Rain
8:35 AM 48.4 °F - 48.2 °F 99% 30.04 in 5.0 mi NE 5.8 mph - 0.06 in Rain Rain
8:55 AM 48.2 °F - 47.8 °F 99% 30.05 in 5.0 mi NE 3.5 mph - 0.09 in Rain Rain
9:15 AM 47.8 °F - 47.5 °F 99% 30.06 in 5.0 mi NE 5.8 mph - 0.04 in Rain Rain
9:35 AM 47.7 °F - 47.3 °F 99% 30.05 in 7.0 mi NNE 4.6 mph - 0.05 in Rain Rain
9:55 AM 47.5 °F - 46.9 °F 98% 30.05 in 10.0 mi NNE 10.4 mph - 0.06 in   Light Drizzle
10:15 AM 47.3 °F - 46.6 °F 97% 30.05 in 7.0 mi NNE 5.8 mph - N/A Rain Rain
10:35 AM 46.4 °F 42.9 °F 45.1 °F 95% 30.04 in 7.0 mi NNE 6.9 mph 17.3 mph N/A Rain Light Rain
10:55 AM 46.0 °F 43.1 °F 45.5 °F 98% 30.02 in 7.0 mi NE 5.8 mph - 0.02 in Rain Rain
11:15 AM 46.0 °F 41.9 °F 45.7 °F 99% 30.00 in 5.0 mi NE 8.1 mph - 0.03 in Rain Rain
11:35 AM 45.9 °F 41.7 °F 45.7 °F 99% 30.00 in 5.0 mi NNE 8.1 mph - 0.06 in Rain Heavy Rain
11:55 AM 45.7 °F 42.0 °F 45.7 °F 100% 30.01 in 4.0 mi North 6.9 mph - 0.10 in Rain Rain
12:15 PM 45.7 °F 40.2 °F 45.7 °F 100% 29.99 in 4.0 mi NNE 11.5 mph - 0.04 in Rain Heavy Rain
12:35 PM 45.5 °F 39.6 °F 45.5 °F 100% 29.96 in 5.0 mi NNE 12.7 mph - 0.07 in Rain Rain
12:55 PM 45.3 °F 40.1 °F 45.3 °F 100% 29.95 in 10.0 mi NE 10.4 mph - 0.08 in Rain Light Rain
1:15 PM 45.0 °F 39.7 °F 45.0 °F 100% 29.92 in 10.0 mi NNE 10.4 mph - N/A Rain Light Rain
1:35 PM 44.2 °F 38.0 °F 44.2 °F 100% 29.92 in 5.0 mi NNE 12.7 mph - 0.01 in Rain Rain
1:55 PM 43.9 °F 40.5 °F 43.9 °F 100% 29.90 in 7.0 mi North 5.8 mph - 0.01 in   Light Drizzle
2:15 PM 43.9 °F 38.3 °F 43.9 °F 100% 29.91 in 7.0 mi North 10.4 mph - N/A   Overcast
2:35 PM 44.1 °F 39.5 °F 44.1 °F 100% 29.90 in 4.0 mi NNE 8.1 mph - N/A   Light Drizzle
2:55 PM 43.7 °F 39.1 °F 43.7 °F 100% 29.90 in 4.0 mi NNE 8.1 mph - N/A   Drizzle
3:15 PM 43.7 °F 38.6 °F 43.7 °F 100% 29.91 in 4.0 mi North 9.2 mph - 0.01 in   Drizzle
3:35 PM 43.9 °F 37.9 °F 43.9 °F 100% 29.89 in 4.0 mi NNE 11.5 mph 19.6 mph 0.01 in Rain Light Rain
3:55 PM 44.1 °F 39.5 °F 44.1 °F 100% 29.89 in 4.0 mi North 8.1 mph - 0.01 in   Drizzle
4:15 PM 43.9 °F 38.8 °F 43.9 °F 100% 29.90 in 3.0 mi North 9.2 mph - N/A   Light Drizzle
4:35 PM 43.7 °F 36.3 °F 43.7 °F 100% 29.88 in 3.0 mi North 16.1 mph 19.6 mph N/A Rain Light Rain
4:55 PM 43.7 °F 36.6 °F 43.7 °F 100% 29.90 in 5.0 mi NNE 15.0 mph 24.2 mph 0.03 in Rain Rain
5:35 PM 42.6 °F 35.2 °F 42.6 °F 100% 29.90 in 4.0 mi NNE 15.0 mph 20.7 mph 0.13 in Rain Heavy Rain
5:55 PM 41.9 °F 34.3 °F 41.9 °F 100% 29.89 in 10.0 mi NNE 15.0 mph 25.3 mph 0.16 in Rain Rain
6:35 PM 41.0 °F 32.5 °F 41.0 °F 100% 29.90 in 10.0 mi North 17.3 mph 26.5 mph 0.01 in Rain Rain
8:17 PM 33.8 °F 24.8 °F 33.8 °F 100% 29.99 in 3.0 mi NNE 12.7 mph 29.9 mph 0.06 in Rain Heavy Rain
8:37 PM 32.0 °F 26.4 °F 32.0 °F 100% 30.07 in 1.8 mi NW 5.8 mph - 0.12 in   Overcast
8:57 PM 32.0 °F 26.4 °F 32.0 °F 100% 30.05 in 2.5 mi North 5.8 mph - N/A   Overcast
9:17 PM 32.0 °F 24.8 °F 32.0 °F 100% 30.05 in 3.0 mi NNE 8.1 mph 16.1 mph 0.02 in   Overcast
9:37 PM 32.0 °F 23.6 °F 32.0 °F 100% 30.07 in 3.0 mi North 10.4 mph - 0.05 in   Overcast
9:57 PM 33.8 °F 28.6 °F 33.8 °F 100% 30.08 in 7.0 mi NNE 5.8 mph - N/A   Overcast
10:17 PM 33.8 °F 30.8 °F 33.8 °F 100% 30.12 in 5.0 mi NW 3.5 mph - N/A Rain Light Rain
10:37 PM 32.0 °F 28.7 °F 32.0 °F 100% 30.17 in 3.0 mi NW 3.5 mph - 0.01 in   Overcast
11:00 PM 32.0 °F 27.5 °F 32.0 °F 100% 30.19 in 1.2 mi NW 4.6 mph - 0.01 in Snow Snow
11:17 PM 32.0 °F - 32.0 °F 100% 30.19 in 1.2 mi Calm Calm - 0.03 in Snow Light Snow
11:37 PM 32.0 °F - 32.0 °F 100% 30.18 in 7.0 mi Calm Calm - 0.05 in   Overcast
11:57 PM 32.0 °F - 32.0 °F 100% 30.19 in 10.0 mi Calm Calm - N/A   Overcast